Flag for Canada Weather past 2 weeks in Chilliwack, British Columbia, Canada

Now
46 °F

Cool.


Feels Like: 46 °F
Forecast: 39 / 52 °F
Wind: 1 mph from Northeast

Location: Agassiz

Current Time: Apr 1, 2015 at 10:09:51 PM

Latest Report: Apr 1, 2015 at 9:00 PM


Visibility: N/A

Pressure: 30.28 "Hg

Humidity: 88%

Dew point: 42 °F

Location of ChilliwackLocation

Historic Weather in Chilliwack — Graph

°F

Chilliwack temperature yesterday

Maximum temperature yesterday: 54 °F (at 6:00 PM)
Minimum temperature yesterday: 46 °F (at 6:00 AM)
Average temperature yesterday: 49 °F

Past Weeks' High & Low Weather Summary

 TemperatureHumidityPressure
High67 °F (Mar 26, 4:00 PM)100% (Mar 19, 9:00 PM)30.31 "Hg (Mar 19, 9:00 PM)
Low40 °F (Mar 24, 5:00 AM)46% (Mar 31, 5:00 PM)29.73 "Hg (Mar 31, 2:00 AM)
Average50 °F85%30.09 "Hg
* Reported Mar 17 9:00 PM — Apr 1 9:00 PM, Chilliwack, Weather by CustomWeather, © 2015

Note: Actual official high and low records may vary slightly from our data, if they occured in-between our weather recording intervals... More about our weather records

Advertising

Chilliwack weather history for previous 24 hours

 ConditionsComfort  
Time TempWeatherWind HumidityBarometerVisibility
9:00 PM
Wed, Apr 1
46 °FCool.1 mph88%30.28 "HgN/A
8:00 PM46 °FCool.2 mph80%30.26 "HgN/A
7:00 PM47 °FCool.3 mph80%30.24 "HgN/A
6:00 PM49 °FCool.2 mph76%30.25 "HgN/A
5:00 PM49 °FCool.5 mph68%30.24 "HgN/A
4:00 PM49 °FCool.7 mph69%30.25 "HgN/A
3:00 PM50 °FCool.6 mph64%30.24 "HgN/A
2:00 PM51 °FCool.6 mph63%30.24 "HgN/A
1:00 PM50 °FCool.2 mph68%30.24 "HgN/A
12:00 PM50 °FCool.1 mph76%30.26 "HgN/A
11:00 AM47 °FCool.2 mph84%30.27 "HgN/A
10:00 AM44 °FQuite cool.1 mph93%30.27 "HgN/A
9:00 AM43 °FQuite cool.2 mph96%30.25 "HgN/A
8:00 AM43 °FQuite cool.2 mph94%30.24 "HgN/A
7:00 AM43 °FQuite cool.2 mph96%30.22 "HgN/A
6:00 AM43 °FQuite cool.1 mph94%30.21 "HgN/A
5:00 AM43 °FQuite cool.2 mph96%30.20 "HgN/A
4:00 AM43 °FQuite cool.3 mph90%30.20 "HgN/A
3:00 AM44 °FQuite cool.2 mph92%30.18 "HgN/A
2:00 AM44 °FQuite cool.2 mph94%30.17 "HgN/A
1:00 AM44 °FQuite cool.3 mph92%30.16 "HgN/A
12:00 AM46 °FCool.1 mph84%30.15 "HgN/A
11:00 PM
Tue, Mar 31
48 °FCool.3 mph70%30.13 "HgN/A
10:00 PM49 °FCool.3 mph66%30.12 "HgN/A
Weather by CustomWeather, © 2015

See weather overviewHow to use our weather pages